Location: Tamazert
(32.6352°N, 5.2072°W)
Time: 00:06:24
(UTC+00:00)

Vanguard 1 Rocket - Pass Details

Date: 09 October 2022
Orbit: 650 x 4225 km, 34.3° (Epoch: 05 December)

Event Time Altitude Azimuth Distance (km) Brightness Sun altitude
Rises 18:29:56 0° 248° (WSW) 8,412 13.9 -8.1°
Reaches altitude 10° 18:35:46 10° 248° (WSW) 7,427 13.3 -9.3°
Maximum altitude 19:01:44 86° 164° (SSE) 3,384 10.2 -14.8°
Enters shadow 19:14:39 20° 78° (ENE) 4,288 10.2 -17.5°
